This demonstration page uses our WeatherBlox Daily Observations layout. Learn more.

Left ArrowRight Arrow

41.55636, -103.73856

Hourly Observations for November 25, 2021

Temp ( °F °C ) Dew Point ( °F °C ) Humidity (%) Winds ( mph kmh ) Pressure ( in mb ) Visibility ( mi km ) Precip ( " mm )
12:58 am 00:58 Clear 20 -6.8 15 -9.3 83 83 SW 5 7 30.55 1035 10 16 0.00 0.00
1:58 am 01:58 Clear 18 -7.8 15 -9.3 89 89 W 3 6 30.57 1035 10 16 0.00 0.00
2:58 am 02:58 Clear 16 -8.7 13 -10.3 88 88 SW 7 11 30.55 1035 10 16 0.00 0.00
3:58 am 03:58 Clear 19 -7.3 14 -9.9 82 82 SW 6 9 30.51 1033 10 16 0.00 0.00
4:58 am 04:58 Clear 16 -8.7 12 -11.2 82 82 SSW 8 13 30.52 1033 10 16 0.00 0.00
5:58 am 05:58 Clear 20 -6.8 13 -10.5 75 75 SW 5 7 30.50 1033 10 16 0.00 0.00
6:58 am 06:58 Sunny 18 -7.9 13 -10.6 81 81 SSW 14 22 30.51 1033 10 16 0.00 0.00
7:58 am 07:58 Sunny 24 -4.5 17 -8.1 76 76 SSW 13 20 30.49 1033 10 16 0.00 0.00
8:58 am 08:58 Sunny 34 1.1 13 -10.4 42 42 WSW 12 19 30.47 1032 10 16 0.00 0.00
9:58 am 09:58 Sunny 40 4.2 11 -11.5 31 31 W 12 19 30.43 1031 10 16 0.00 0.00
10:58 am 10:58 Sunny 46 7.9 7 -13.7 20 20 WNW 17 28 30.38 1029 10 16 0.00 0.00
11:58 am 11:58 Sunny 51 10.3 4 -15.8 14 14 W 18 30 30.34 1027 10 16 0.00 0.00
12:58 pm 12:58 Mostly Sunny 51 10.7 4 -15.3 15 15 NW 24 39 30.31 1026 10 16 0.00 0.00
1:58 pm 13:58 Partly Cloudy 53 11.6 6 -14.3 15 15 WNW 22 35 30.29 1026 10 16 0.00 0.00
2:58 pm 14:58 Partly Cloudy 53 11.9 8 -13.1 16 16 NW 20 31 30.27 1025 10 16 0.00 0.00
3:58 pm 15:58 Mostly Sunny 51 10.8 8 -13.1 17 17 NW 16 26 30.29 1026 10 16 0.00 0.00
4:58 pm 16:58 Partly Cloudy 48 8.7 9 -12.9 20 20 WNW 9 15 30.31 1026 10 16 0.00 0.00
5:58 pm 17:58 Clear 42 5.8 9 -12.6 26 26 W 9 15 30.32 1027 10 16 0.00 0.00
6:58 pm 18:58 Partly Cloudy 41 4.9 10 -12.3 28 28 W 9 15 30.33 1027 10 16 0.00 0.00
7:58 pm 19:58 Mostly Clear 42 5.8 10 -12.3 26 26 W 12 19 30.30 1026 10 16 0.00 0.00
8:58 pm 20:58 Mostly Cloudy 40 4.4 11 -11.9 30 30 WSW 10 17 30.27 1025 10 16 0.00 0.00
9:58 pm 21:58 Mostly Clear 44 6.7 10 -12.3 25 25 WSW 9 15 30.23 1024 10 16 0.00 0.00
10:58 pm 22:58 Clear 45 7.3 8 -13.1 22 22 WNW 15 24 30.18 1022 10 16 0.00 0.00
11:58 pm 23:58 Clear 45 7.4 8 -13.4 21 21 WNW 20 31 30.15 1021 10 16 0.00 0.00

Powered by AerisWeather